FENGYUN 2H

Last updated on Nov. 15, 2019, 4:20 a.m. UTC

1 43491U 18050A   19317.92543738 -.00000115  00000-0  00000-0 0  9995
2 43491   1.1702 279.5492 0002885 248.4680 297.1723  1.00272272  5376
UTC
Height (km)
Latitude
Longitude
Inclination
Orbital Period
UTC large
Height (km)
Speed (km/s)
/
Latitude / Longitude
Inclination (degrees)
Orbital Period (minutes)
Azimuth
Elevation
Range (km)
Doppler Factor
iOS Compass Heading
iOS Angle

Next 30 passes for location: Hong Kong

Rise time Rise Azimuth (degrees) Set time Set Azimuth (degrees) Duration Max altitude (degrees)

No matching passes for this satellites